CZ-6A DEB, 60828

Orbit data source: Space-Track

CZ-6A DEB, 60828 is space debris in LEO originally from a launch on Tue, 06 Aug 2024 UTC launched from the Taiyaun Space Center, China (TSC). Debris objects in space refer to the collection of defunct objects orbiting the Earth. Examples of debris include non-operational satellites, rocket bodies, and fragments generated from explosions, collisions, or faulty payload assembly.

Loading next visibility...
Identifier
60828, 2024-140HF
Orbit
LEO
Country
Flag of CNCN / PRC
Related business
Manufacturer
SAST
Mission
Spacecraft
Bus & Motor
Unknown
Mass
Unknown
Launch date (UTC)
2024-08-06 (2 years ago)
Launch vehicle
Unknown
Launch site
Taiyaun Space Center, China (TSC)
Object type
Payload
Rocket body
Debris
Shape & HBR
Unknown shape, 0.1 m
Radar Cross Section
Small (<0.1 m²)

Expand to show TLE details & history
Last TLE update: 12 hours ago

TLE from 12 hours ago
0 CZ-6A DEB
1 60828U 24140HF  26171.34349738  .00000383  00000-0  10677-3 0  9991
2 60828  89.0737 277.4792 0082029 324.5119  35.0642 14.42504670 97418
Epoch: 2026-06-20T08:14Z
TLE epoch observation values (Epoch: 2026-06-20T08:14:38.173Z)
Latitude
-0.00003°
Longitude
-114.73933°
Altitude
705.609 km
Speed
7.528 km/s
True Right ascension
18h 29m 55s
True Declination
0° 00' 00"
Sunlit
Object was in full shadow at epoch
Visualization orbit readout
Latitude
Unknown
Longitude
Unknown
Altitude
Unknown
Speed
Unknown
Apparent Right ascension
Unknown
Apparent Declination
Unknown
Sunlit
N/A
Visualization observer readout
Local Sidereal Time
07:15:05
Azimuth
Unknown
Elevation
Unknown
Doppler factor
Unknown
Orbital elements
Apogee altitude
805.601 km
Perigee altitude
688.705 km
Semi-major axis
7,125.29 km
Eccentricity
0.0082
Inclination
89.0737°
RAAN
277.4792°
Arg. of periapsis
324.5119°
True anomaly
35.60878°
Mean anomaly
35.0642°
Eccentric anomaly
35.33603°
Mean motion
3.6086 °/min
Orbital period
99.76 mins
BSTAR
0.00010677
Loading maneuver chart data...
Computing Atmospheric mass density...
Loading historical data...
Loading historical data...
Loading historical data...
Loading historical data...
Loading historical data...
Loading historical data...
Loading historical data...

Documentation

Showing up to 5 results
|